Regional Weather Roundup
Issued by NWS

Home | Current Version | Previous Version | Graphics & Text | Print | Product List | Glossary On
Versions: 1 2 3 4 5 6 7 8 9 10 11 12 13 14 15 16 17 18 19 20 21 22 23 24 25 26 27 28 29 30 31 32 33 34 35 36 37 38 39 40 41 42 43 44 45 46 47 48 49 50
982
ASUS43 KMKX 230700
RWRWI

WISCONSIN REGIONAL WEATHER ROUNDUP
NATIONAL WEATHER SERVICE MILWAUKEE/SULLIVAN WI
200 AM CDT FRI JUN 23 2017

NOTE: "FAIR" INDICATES FEW OR NO CLOUDS BELOW 12,000 FEET WITH NO
SIGNIFICANT WEATHER AND/OR OBSTRUCTIONS TO VISIBILITY.

WIZ001-002-006>008-014>016-023>028-230800-
NORTHWEST WISCONSIN

CITY           SKY/WX    TMP DP  RH WIND       PRES   REMARKS
SUPERIOR ARPT  NOT AVBL
ASHLAND        CLEAR     56  51  84 SW8       29.67F
HAYWARD        CLEAR     50  48  93 CALM      29.70F FOG
SIREN          CLEAR     54  50  86 CALM      29.71F
CUMBERLAND     PTCLDY    57  54  88 W5        29.72S
RICE LAKE      CLEAR     60  57  90 W3        29.73S
CHETEK         PTCLDY    58  58 100 W3        29.72S FOG
LADYSMITH      PTCLDY    59  58  97 CALM      29.72F
EAU CLAIRE     NOT AVBL
MENOMONIE        N/A     60  59  97 CALM      29.72F FOG
NEW RICHMOND   CLEAR     58  57  96 SW5       29.74S
OSCEOLA        CLEAR     56  56 100 CALM      29.75F
$$

WIZ003>005-009-010-017-018-230800-
NORTH CENTRAL WISCONSIN

CITY           SKY/WX    TMP DP  RH WIND       PRES   REMARKS
MANITOWISH WTR MOCLDY    56  56 100 CALM      29.70F
ARBOR VITAE    CLOUDY    59  58  96 NW3       29.69S
WOODRUFF       CLOUDY    59  58  96 NW3       29.69S
RHINELANDER    FOG       56  56 100 W3        29.71S VSB 1
EAGLE RIVER    CLOUDY    54  54 100 CALM      29.70S FOG
LAND O LAKES   CLOUDY    58  56  91 CALM      29.71F
PHILLIPS       PTCLDY    58  58 100 CALM      29.70F
TOMAHAWK       NOT AVBL
MEDFORD        CLOUDY    60  59  98 CALM      29.72S
MERRILL        CLOUDY    61  61 100 CALM      29.72S
$$

WIZ029-030-035-036-043>047-230800-
CENTRAL WISCONSIN

CITY           SKY/WX    TMP DP  RH WIND       PRES   REMARKS
WAUSAU         CLOUDY    62  61  96 W5        29.70S
MOSINEE        CLOUDY    63  63 100 W7        29.74R
MARSHFIELD     CLOUDY    63  60  90 NW3       29.71F
STEVENS POINT  CLOUDY    63  63 100 CALM      29.74R
WAUPACA        CLOUDY    67  67  99 NW3       29.69F
WAUTOMA        LGT RAIN  65  64  97 NW5       29.70F
WISC RAPIDS    CLOUDY    66  65  96 N6        29.73F
CAMP DOUGLAS   CLOUDY    64  64 100 W5        29.71S FOG
$$

WIZ011>013-019>022-031-037>040-048>050-230800-
NORTHEAST WISCONSIN

CITY           SKY/WX    TMP DP  RH WIND       PRES   REMARKS
ANTIGO         CLOUDY    60  60 100 NW8       29.71S
SHAWANO        CLOUDY    67  65  96 SW3       29.68S
OCONTO         CLOUDY    65  65  97 W5        29.66S
STURGEON BAY     N/A     66  66 100 W6          N/A  FOG
GREEN BAY      CLOUDY    66  66 100 W8        29.68R
MANITOWOC      NOT AVBL
APPLETON       HVY RAIN  64  64 100 W6        29.67F
CLINTONVILLE   RAIN      64  64 100 SW5       29.70S
OSHKOSH        LGT RAIN  66  65  96 N3        29.66F
$$

WIZ032>034-041-042-053>061-230800-
SOUTHWEST WISCONSIN

CITY           SKY/WX    TMP DP  RH WIND       PRES   REMARKS
LA CROSSE      CLOUDY    68  68 100 NW5       29.73R
SPARTA         CLOUDY    64  64 100 CALM      29.74R FOG
VIROQUA        CLOUDY    65  65 100 N6        29.73S
BOSCOBEL       LGT RAIN  67  65  93 E3        29.70S
PRAIRIE DU CHI HVY RAIN  67  64  89 W5        29.72R
PLATTEVILLE    CLOUDY    67  67 100 NE15      29.66F
$$

WIZ056-057-062-063-064-067-068-230800-
SOUTH CENTRAL WISCONSIN

CITY           SKY/WX    TMP DP  RH WIND       PRES   REMARKS
REEDSBURG      LGT RAIN  64  64 100 CALM      29.69F
BARABOO/DELLS  CLOUDY    64  63  94 CALM      29.70S
LONE ROCK      LGT RAIN  66  63  88 N8        29.68F
MINERAL POINT  HVY RAIN  64  64 100 N16G24    29.68F
MADISON        TSTM      65  64  97 S5        29.69R VSB 1
MIDDLETON      CLOUDY    67  67 100 N8        29.71R
WATERTOWN      TSTM      65  65 100 NE9       29.65F
MONROE         CLOUDY    73  70  88 SW5       29.65F
JANESVILLE     CLOUDY    77  72  83 SW10      29.64F
$$

WIZ051-052-058>065-066-070>072-230800-
SOUTHEAST WISCONSIN

CITY           SKY/WX    TMP DP  RH WIND       PRES   REMARKS
MILWAUKEE      CLOUDY    67  65  93 N15G28    29.68R
WAUKESHA       CLOUDY    64  64 100 N16G24    29.67S
MILWAUKEE/TIMM CLOUDY    66  61  82 N5        29.69R
RACINE         CLOUDY    65  63  93 N8        29.68S
KENOSHA        CLOUDY    75  71  87 SW10      29.64F
FOND DU LAC    LGT RAIN  67  64  90 NW3       29.68F
SHEBOYGAN      TSTM      67  67 100 CALM      29.67S FOG
WEST BEND      RAIN      64  64 100 NW5       29.69S
JUNEAU         LGT RAIN  64  64  97 CALM      29.69F
$$

LSZ147-162-230800-
LAKE SUPERIOR

STATION/POSITION TIME  TEMP    WIND        PRES    WAVE
                       AIR SEA DIR/SP/G            HT/PER
                 (UTC) (F)     (DEG/KT/KT) (MB)    (FT/S)
W MID LAKE BUOY  0550   48 39  240/  8/  8 1003.5F   1/ 3
DEVILS ISLAND    0600   59     220/ 10/ 11 1004.0F
SAXON HARBOR     0630   59     190/  5/  8 1004.4S
$$

LMZ867-665-643>646-230800-
LAKE MICHIGAN

STATION/POSITION TIME  TEMP    WIND        PRES    WAVE
                       AIR SEA DIR/SP/G            HT/PER
                 (UTC) (F)     (DEG/KT/KT) (MB)    (FT/S)
CHAMBERS ISLAND  0640   65     210/  5/  8 1004.1R
S GREEN BAY BUOY 0630   67     230/  8/ 10 1004.5
N MID LAKE BUOY  0550   57 54  180/  8/ 10 1004.5F   2/ 5
NORTHPORT PIER   0640   65     220/  3/  4 1003.7F
KEWAUNEE LAKESHO 0630   66     280/  4/  7 1004.1F
SHEBOYGAN LAKESH 0600   65     350/  6/  7 1004.0F
PORT WASHINGTON  0630   67     340/  3/  7 1006.1S
ATWATER BUOY     0509   61 59   10/  6/  8 1005.0F
MILWAUKEE LAKESH 0630   64      20/ 14/ 17   N/A
S MID LAKE BUOY  0550   66 61  210/ 19/ 23 1003.3F   3/ 4
KENOSHA   LAKESH 0600   76     220/  8/ 13 1004.4
$$

TC  - TEMPERATURE IN CELSIUS
VSB - VISIBILITY IN STATUTE MILES
WCI - WIND CHILL INDEX
HX  - HEAT INDEX





USA.gov is the U.S. government's official web portal to all federal, state and local government web resources and services.